GW4780 Weather Reports


Display with metric or nautical units.
time (UTC)temp
F
wind
direction
speed
MPH
gust
MPH
rain 1hr
in
rain 24hr
in
rain mn
in
humidity
%
barometer
mb
20260902100003 62 194 2.0 7.0 0.02 0.02 0.02 90 1017.7
20260902095503 61 191 2.0 7.0 0.02 0.02 0.02 90 1017.7
20260902095217 61 193 2.0 5.0 0.02 0.02 0.02 91 1017.7
20260902094503 61 193 1.0 5.0 0.02 0.02 0.02 91 1017.7
20260902094004 61 194 1.0 7.0 0.01 0.02 0.02 90 1017.7
20260902093503 61 200 2.0 7.0 0.01 0.02 0.02 90 1017.6
20260902093004 61 203 3.0 9.0 0.02 0.02 0.02 90 1017.7
20260902092503 61 210 3.0 9.0 0.02 0.02 0.02 90 1017.7
20260902092003 61 211 2.0 7.0 0.02 0.02 0.02 91 1017.8
20260902091503 61 208 3.0 10.0 0.02 0.02 0.02 91 1017.8
20260902091003 60 206 3.0 10.0 0.02 0.02 0.02 91 1017.8
20260902090504 60 206 3.0 8.0 0.02 0.02 0.02 92 1017.9
20260902090004 60 210 3.0 6.0 0.01 0.01 0.01 92 1017.8
20260902085503 60 205 2.0 6.0 0.01 0.01 0.01 92 1017.8
20260902085217 60 203 2.0 7.0 0.01 0.01 0.01 92 1017.8
20260902084504 60 204 3.0 7.0 0.01 0.01 0.01 91 1017.8
20260902084004 60 208 2.0 6.0 0.01 0.01 0.01 91 1017.8
20260902083503 60 206 1.0 8.0 0.01 0.01 0.01 92 1017.7
20260902083004 60 202 2.0 8.0 0.00 0.00 0.00 91 1017.8
20260902082504 60 205 3.0 7.0 0.00 0.00 0.00 91 1017.8
20260902082004 59 203 2.0 6.0 0.00 0.00 0.00 91 1017.7
20260902081503 59 204 2.0 7.0 0.00 0.00 0.00 91 1017.6
20260902081004 59 204 3.0 7.0 0.00 0.00 0.00 91 1017.5
20260902080504 59 203 3.0 8.0 0.00 0.00 0.00 91 1017.5
20260902080217 59 202 3.0 8.0 0.00 0.00 0.00 90 1017.4
20260902075503 59 206 2.0 7.0 0.00 0.00 0.00 90 1017.3
20260902075003 59 203 2.0 6.0 0.00 0.00 0.00 90 1017.4
20260902074503 59 209 2.0 7.0 0.00 0.00 0.00 89 1017.5
20260902074004 59 208 3.0 9.0 0.00 0.00 0.00 89 1017.5
20260902073504 59 205 3.0 9.0 0.00 0.00 0.00 89 1017.5
20260902073217 59 205 3.0 10.0 0.00 0.00 0.00 88 1017.6
20260902072504 59 207 3.0 10.0 0.00 0.00 0.00 88 1017.6
20260902072004 59 211 2.0 8.0 0.00 0.00 0.00 88 1017.5
20260902071503 59 219 2.0 6.0 0.00 0.00 0.00 88 1017.5
20260902071004 59 223 2.0 6.0 0.00 0.00 0.00 88 1017.6
20260902070717 59 221 1.0 6.0 0.00 0.00 0.00 88 1017.5
20260902070006 58 205 0.0 3.0 0.00 0.00 0.00 88 1017.4
20260902065503 58 208 0.0 2.0 0.00 0.00 0.00 88 1017.3
20260902065003 58 224 0.0 2.0 0.00 0.00 0.00 87 1017.3
20260902064504 58 231 0.0 2.0 0.00 0.00 0.00 88 1017.4
20260902064218 58 227 0.0 3.0 0.00 0.00 0.00 88 1017.4
20260902063503 58 230 0.0 3.0 0.00 0.00 0.00 88 1017.4
20260902063003 58 208 0.0 4.0 0.00 0.00 0.00 88 1017.4
20260902062719 58 212 1.0 4.0 0.00 0.00 0.00 88 1017.4
20260902062004 58 218 1.0 4.0 0.00 0.00 0.00 88 1017.3
20260902061503 58 213 1.0 3.0 0.00 0.00 0.00 88 1017.3
20260902061004 58 215 0.0 3.0 0.00 0.00 0.00 88 1017.3
20260902060503 57 211 0.0 3.0 0.00 0.00 0.00 88 1017.2
20260902060004 57 215 0.0 3.0 0.00 0.00 0.00 88 1017.2
20260902055504 57 232 0.0 5.0 0.00 0.00 0.00 88 1017.2
20260902055004 57 218 0.0 5.0 0.00 0.00 0.00 88 1017.3
20260902054504 57 168 0.0 2.0 0.00 0.00 0.00 88 1017.3
20260902054003 57 175 0.0 2.0 0.00 0.00 0.00 88 1017.2
20260902053503 57 174 0.0 2.0 0.00 0.00 0.00 88 1017.2
20260902053218 57 170 0.0 2.0 0.00 0.00 0.00 88 1017.1
20260902052503 57 187 0.0 3.0 0.00 0.00 0.00 88 1017.2
20260902052004 57 162 0.0 3.0 0.00 0.00 0.00 88 1017.2
20260902051503 57 109 0.0 2.0 0.00 0.00 0.00 88 1017.2
20260902051004 57 193 0.0 2.0 0.00 0.00 0.00 88 1017.2
20260902050717 57 199 0.0 2.0 0.00 0.00 0.00 88 1017.1
20260902050007 57 194 0.0 1.0 0.00 0.00 0.00 88 1017.1
20260902045503 57 194 0.0 4.0 0.00 0.00 0.00 88 1017.1
20260902045217 57 205 1.0 5.0 0.00 0.00 0.00 87 1017.0
20260902044716 57 210 1.0 5.0 0.00 0.00 0.00 87 1017.1
20260902044003 57 214 0.0 3.0 0.00 0.00 0.00 87 1017.2
20260902043717 57 211 0.0 3.0 0.00 0.00 0.00 87 1017.2
20260902043003 58 202 1.0 3.0 0.00 0.00 0.00 87 1017.1
20260902042718 58 194 1.0 5.0 0.00 0.00 0.00 87 1017.1
20260902042004 58 202 1.0 5.0 0.00 0.00 0.00 87 1017.1
20260902041503 58 203 1.0 5.0 0.00 0.00 0.00 87 1017.2
20260902041004 58 206 2.0 8.0 0.00 0.00 0.00 87 1017.1
20260902040716 58 206 2.0 8.0 0.00 0.00 0.00 87 1017.1
20260902040004 58 201 2.0 7.0 0.00 0.00 0.00 87 1017.2
20260902035504 58 204 2.0 7.0 0.00 0.00 0.00 87 1017.2
20260902035003 58 216 1.0 6.0 0.00 0.00 0.00 87 1017.4
20260902034503 58 219 1.0 4.0 0.00 0.00 0.00 86 1017.4
20260902034219 58 209 1.0 5.0 0.00 0.00 0.00 86 1017.3
20260902033503 58 209 2.0 6.0 0.00 0.00 0.00 86 1017.3
20260902033003 58 211 1.0 6.0 0.00 0.00 0.00 86 1017.2
20260902032504 58 211 1.0 5.0 0.00 0.00 0.00 86 1017.2
20260902032003 58 210 1.0 6.0 0.00 0.00 0.00 85 1017.2
20260902031503 58 213 1.0 6.0 0.00 0.00 0.00 85 1017.3
20260902031003 58 211 1.0 6.0 0.00 0.00 0.00 85 1017.4
20260902030718 58 210 1.0 9.0 0.00 0.00 0.00 85 1017.3
20260902030004 58 216 2.0 9.0 0.00 0.00 0.00 85 1017.4
20260902025503 58 221 2.0 7.0 0.00 0.00 0.00 85 1017.4
20260902025003 58 224 2.0 6.0 0.00 0.00 0.00 85 1017.5
20260902024504 58 223 1.0 7.0 0.00 0.00 0.00 85 1017.4
20260902024219 58 231 1.0 7.0 0.00 0.00 0.00 85 1017.5
20260902023504 58 227 1.0 5.0 0.00 0.00 0.00 85 1017.7
20260902023003 58 217 2.0 6.0 0.00 0.00 0.00 85 1017.7
20260902022718 58 216 2.0 6.0 0.00 0.00 0.00 85 1017.6
20260902022217 58 208 1.0 4.0 0.00 0.00 0.00 85 1017.7
20260902021503 59 209 1.0 6.0 0.00 0.00 0.00 85 1017.7
20260902021003 58 214 1.0 5.0 0.00 0.00 0.00 84 1017.6
20260902020504 58 199 1.0 5.0 0.00 0.00 0.00 85 1017.6
20260902020217 59 195 2.0 7.0 0.00 0.00 0.00 84 1017.7
20260902015503 59 196 2.0 7.0 0.00 0.00 0.00 84 1017.7
20260902015003 59 197 2.0 6.0 0.00 0.00 0.00 84 1017.6
20260902014717 59 199 2.0 5.0 0.00 0.00 0.00 84 1017.7
20260902014218 59 205 1.0 4.0 0.00 0.00 0.00 84 1017.7
20260902013504 59 211 1.0 4.0 0.00 0.00 0.00 84 1017.7
20260902013216 59 214 1.0 4.0 0.00 0.00 0.00 84 1017.7
20260902012717 59 209 1.0 5.0 0.00 0.00 0.00 84 1017.7
20260902012004 59 208 1.0 5.0 0.00 0.00 0.00 83 1017.8
20260902011504 59 202 2.0 7.0 0.00 0.00 0.00 83 1017.8
20260902011218 59 204 1.0 7.0 0.00 0.00 0.00 83 1017.8
20260902010504 59 195 1.0 7.0 0.00 0.00 0.00 83 1017.9
20260902010003 60 203 2.0 5.0 0.00 0.00 0.00 83 1017.7
20260902005503 60 215 2.0 7.0 0.00 0.00 0.00 82 1017.8
20260902005004 60 213 1.0 7.0 0.00 0.00 0.00 82 1017.8
20260902004503 60 216 1.0 4.0 0.00 0.00 0.00 82 1017.9
20260902004218 60 217 1.0 6.0 0.00 0.00 0.00 82 1018.0
20260902003503 60 215 1.0 6.0 0.00 0.00 0.00 82 1017.9
20260902003004 60 211 2.0 8.0 0.00 0.00 0.00 82 1017.9
20260902002503 60 209 1.0 8.0 0.00 0.00 0.00 81 1018.0
20260902002003 60 222 1.0 5.0 0.00 0.00 0.00 81 1018.1
20260902001503 61 220 2.0 5.0 0.00 0.00 0.00 81 1017.9
20260902001003 61 218 1.0 5.0 0.00 0.00 0.00 81 1018.0
20260902000503 61 217 1.0 5.0 0.00 0.00 0.00 81 1017.9
20260902000219 61 217 1.0 5.0 0.00 0.00 0.00 81 1017.9
20260901235503 61 214 1.0 8.0 0.00 0.00 0.00 81 1018.0
20260901235004 61 212 1.0 8.0 0.00 0.00 0.00 81 1018.0
20260901234504 61 214 1.0 5.0 0.00 0.00 0.00 81 1017.9
20260901234003 61 216 1.0 5.0 0.00 0.00 0.00 81 1017.9
20260901233503 61 213 1.0 6.0 0.00 0.00 0.00 81 1017.9
20260901233003 61 204 2.0 7.0 0.00 0.00 0.00 81 1017.9
20260901232504 61 204 1.0 7.0 0.00 0.00 0.00 81 1018.0
20260901232003 61 207 1.0 7.0 0.00 0.00 0.00 81 1018.1
20260901231503 62 209 1.0 7.0 0.00 0.00 0.00 81 1018.1
20260901231218 62 209 1.0 7.0 0.00 0.00 0.00 81 1018.1
20260901230504 62 220 1.0 5.0 0.00 0.00 0.00 81 1018.2
20260901230004 62 221 2.0 5.0 0.00 0.00 0.00 81 1018.2
20260901225504 62 220 1.0 3.0 0.00 0.00 0.00 81 1018.2
20260901225004 62 224 1.0 8.0 0.00 0.00 0.00 81 1018.2
20260901224503 62 215 1.0 8.0 0.00 0.00 0.00 81 1018.2
20260901224003 62 209 1.0 5.0 0.00 0.00 0.00 80 1018.2
20260901223504 62 202 1.0 3.0 0.00 0.00 0.00 80 1018.2
20260901223003 62 198 1.0 3.0 0.00 0.00 0.00 80 1018.2
20260901222503 62 196 1.0 5.0 0.00 0.00 0.00 79 1018.2
20260901222219 62 198 1.0 5.0 0.00 0.00 0.00 79 1018.2
20260901221503 62 201 0.0 2.0 0.00 0.00 0.00 78 1018.2
20260901221003 62 202 0.0 2.0 0.00 0.00 0.00 78 1018.2
20260901220504 62 208 0.0 2.0 0.00 0.00 0.00 78 1018.2
20260901220004 63 213 0.0 2.0 0.00 0.00 0.00 77 1018.1
20260901215718 63 215 0.0 3.0 0.00 0.00 0.00 77 1018.2
20260901215003 63 222 1.0 5.0 0.00 0.00 0.00 77 1018.2
20260901214504 63 225 2.0 9.0 0.00 0.00 0.00 77 1018.3
20260901214004 63 226 1.0 9.0 0.00 0.00 0.00 77 1018.3
20260901213504 63 226 1.0 4.0 0.00 0.00 0.00 76 1018.3
20260901213003 63 225 1.0 5.0 0.00 0.00 0.00 76 1018.4
20260901212503 64 222 1.0 5.0 0.00 0.00 0.00 75 1018.4
20260901212003 64 221 0.0 3.0 0.00 0.00 0.00 74 1018.5
20260901211718 64 220 1.0 7.0 0.00 0.00 0.00 74 1018.4
20260901211004 64 217 1.0 7.0 0.00 0.00 0.00 74 1018.4
20260901210504 64 205 1.0 5.0 0.00 0.00 0.00 73 1018.3
20260901210003 64 220 1.0 3.0 0.00 0.00 0.00 72 1018.2
20260901205504 64 235 1.0 5.0 0.00 0.00 0.00 71 1018.4
20260901205004 64 236 1.0 8.0 0.00 0.00 0.00 71 1018.4
20260901204504 64 232 1.0 8.0 0.00 0.00 0.00 71 1018.2
20260901204004 64 228 1.0 6.0 0.00 0.00 0.00 71 1018.2
20260901203503 64 230 1.0 5.0 0.00 0.00 0.00 71 1018.3
20260901203216 64 234 1.0 5.0 0.00 0.00 0.00 72 1018.2
20260901202504 64 229 1.0 4.0 0.00 0.00 0.00 72 1018.2
20260901202003 64 224 0.0 3.0 0.00 0.00 0.00 72 1018.3
20260901201503 64 225 0.0 2.0 0.00 0.00 0.00 72 1018.2
20260901201004 65 225 0.0 2.0 0.00 0.00 0.00 71 1018.2
20260901200503 65 228 0.0 2.0 0.00 0.00 0.00 71 1018.2
20260901200003 65 229 0.0 2.0 0.00 0.00 0.00 70 1018.2
20260901195503 65 228 0.0 4.0 0.00 0.00 0.00 70 1018.1
20260901195004 65 232 1.0 4.0 0.00 0.00 0.00 70 1018.2
20260901194504 65 229 0.0 3.0 0.00 0.00 0.00 70 1018.2
20260901194218 65 235 0.0 3.0 0.00 0.00 0.00 70 1018.2
20260901193504 65 233 0.0 2.0 0.00 0.00 0.00 70 1018.3
20260901193003 65 228 1.0 4.0 0.00 0.00 0.00 70 1018.2
20260901192717 65 229 1.0 4.0 0.00 0.00 0.00 70 1018.3
20260901192218 65 234 1.0 3.0 0.00 0.00 0.00 69 1018.1
20260901191504 66 227 1.0 4.0 0.00 0.00 0.00 69 1018.1
20260901191004 66 227 1.0 4.0 0.00 0.00 0.00 69 1017.9
20260901190503 66 229 1.0 4.0 0.00 0.00 0.00 68 1017.9
20260901190004 66 244 1.0 3.0 0.00 0.00 0.00 68 1017.9
20260901185505 66 254 0.0 3.0 0.00 0.00 0.00 68 1017.7
20260901185218 66 239 1.0 4.0 0.00 0.00 0.00 68 1017.7
20260901184504 66 210 1.0 6.0 0.00 0.00 0.00 67 1017.7
20260901184004 67 199 1.0 6.0 0.00 0.00 0.00 67 1017.5
20260901183503 67 210 1.0 5.0 0.00 0.00 0.00 67 1017.6
20260901183004 67 216 1.0 5.0 0.00 0.00 0.00 66 1017.7
20260901182503 67 229 1.0 6.0 0.00 0.00 0.00 66 1017.7
20260901182004 67 216 2.0 6.0 0.00 0.00 0.00 65 1017.6
20260901181503 67 216 1.0 6.0 0.00 0.00 0.00 64 1017.6
20260901181003 67 228 2.0 5.0 0.00 0.00 0.00 65 1017.8
20260901180503 68 226 1.0 5.0 0.00 0.00 0.00 64 1017.7
20260901180004 68 219 1.0 8.0 0.00 0.00 0.00 64 1017.8
20260901175504 68 219 2.0 8.0 0.00 0.00 0.00 63 1017.7
20260901175003 68 221 2.0 7.0 0.00 0.00 0.00 63 1017.6
20260901174504 68 225 1.0 6.0 0.00 0.00 0.00 63 1017.6
20260901174006 68 227 1.0 6.0 0.00 0.00 0.00 62 1017.6
20260901173504 68 228 1.0 6.0 0.00 0.00 0.00 62 1017.7
20260901173004 68 231 1.0 7.0 0.00 0.00 0.00 62 1017.7
20260901172718 68 232 1.0 7.0 0.00 0.00 0.00 61 1017.6
20260901172003 69 234 1.0 7.0 0.00 0.00 0.00 60 1017.6
20260901171503 69 250 1.0 6.0 0.00 0.00 0.00 60 1017.6
20260901171003 69 253 1.0 6.0 0.00 0.00 0.00 59 1017.6
20260901170718 70 258 1.0 6.0 0.00 0.00 0.00 59 1017.6
20260901170004 70 261 1.0 6.0 0.00 0.00 0.00 59 1017.6
20260901165503 70 259 1.0 6.0 0.00 0.00 0.00 59 1017.5
20260901165003 70 256 1.0 8.0 0.00 0.00 0.00 60 1017.5
20260901164503 69 248 2.0 8.0 0.00 0.00 0.00 59 1017.7
20260901164004 69 244 2.0 11.0 0.00 0.00 0.00 59 1017.9
20260901163503 70 240 2.0 12.0 0.00 0.00 0.00 57 1017.6
20260901163004 70 232 2.0 12.0 0.00 0.00 0.00 57 1017.4
20260901162503 70 234 2.0 8.0 0.00 0.00 0.00 56 1017.3
20260901162217 70 235 2.0 8.0 0.00 0.00 0.00 56 1017.3
20260901161503 70 232 2.0 8.0 0.00 0.00 0.00 56 1017.4
20260901161003 70 234 2.0 8.0 0.00 0.00 0.00 56 1017.5
20260901160503 70 256 1.0 8.0 0.00 0.00 0.00 57 1017.6
20260901160004 70 282 1.0 5.0 0.00 0.00 0.00 57 1017.6
20260901155504 70 270 1.0 4.0 0.00 0.00 0.00 57 1017.6
20260901155003 70 243 1.0 5.0 0.00 0.00 0.00 57 1017.5
20260901154504 70 238 1.0 7.0 0.00 0.00 0.00 56 1017.5
20260901154003 70 247 2.0 7.0 0.00 0.00 0.00 58 1017.5
20260901153718 70 256 2.0 5.0 0.00 0.00 0.00 57 1017.6
20260901153003 70 254 2.0 7.0 0.00 0.00 0.00 57 1017.7
20260901152503 70 247 2.0 7.0 0.00 0.00 0.00 56 1017.6
20260901152003 70 249 2.0 6.0 0.00 0.00 0.00 56 1017.6
20260901151503 70 236 2.0 8.0 0.00 0.00 0.00 57 1017.7
20260901151216 70 241 2.0 8.0 0.00 0.00 0.00 57 1017.8
20260901150504 69 267 1.0 8.0 0.00 0.00 0.00 58 1017.8
20260901150003 69 247 1.0 6.0 0.00 0.00 0.00 58 1017.9
20260901145504 69 243 2.0 10.0 0.00 0.00 0.00 59 1017.9
20260901145003 69 240 2.0 10.0 0.00 0.00 0.00 59 1017.9
20260901144504 69 229 1.0 6.0 0.00 0.00 0.00 57 1017.9
20260901144004 70 236 1.0 6.0 0.00 0.00 0.00 57 1017.8
20260901143503 70 245 1.0 7.0 0.00 0.00 0.00 57 1017.7
20260901143004 70 229 1.0 7.0 0.00 0.00 0.00 56 1017.8
20260901142504 70 241 1.0 6.0 0.00 0.00 0.00 56 1018.0
20260901142003 70 256 1.0 6.0 0.00 0.00 0.00 56 1017.9
20260901141503 70 233 1.0 5.0 0.00 0.00 0.00 56 1017.8
20260901141218 70 223 1.0 5.0 0.00 0.00 0.00 56 1017.8
20260901140504 70 228 1.0 6.0 0.00 0.00 0.00 56 1017.8
20260901140004 70 230 2.0 10.0 0.00 0.00 0.00 55 1017.9
20260901135504 71 248 2.0 11.0 0.00 0.00 0.00 56 1017.8
20260901135003 71 237 2.0 11.0 0.00 0.00 0.00 56 1017.9
20260901134504 71 224 2.0 8.0 0.00 0.00 0.00 56 1018.1
20260901134003 71 217 2.0 8.0 0.00 0.00 0.00 56 1017.8
20260901133503 71 215 3.0 11.0 0.00 0.00 0.00 56 1017.9
20260901133218 71 215 3.0 11.0 0.00 0.00 0.00 55 1017.9
20260901132503 71 227 3.0 9.0 0.00 0.00 0.00 54 1018.0
20260901132218 72 231 3.0 9.0 0.00 0.00 0.00 53 1017.9
20260901131503 71 246 2.0 8.0 0.00 0.00 0.00 55 1017.9
20260901131003 71 230 2.0 9.0 0.00 0.00 0.00 56 1018.0
20260901130503 71 228 2.0 9.0 0.00 0.00 0.00 55 1018.0
20260901130003 71 242 2.0 7.0 0.00 0.00 0.00 55 1018.2
20260901125719 71 236 2.0 8.0 0.00 0.00 0.00 55 1018.1
20260901125003 72 238 2.0 8.0 0.00 0.00 0.00 55 1018.1
20260901124503 71 238 1.0 7.0 0.00 0.00 0.00 57 1018.1
20260901124004 71 236 2.0 9.0 0.00 0.00 0.00 56 1018.1
20260901123504 71 236 2.0 9.0 0.00 0.00 0.00 54 1018.2
20260901123004 71 235 2.0 8.0 0.00 0.00 0.00 54 1018.3
20260901122504 71 219 2.0 12.0 0.00 0.00 0.00 56 1018.2
20260901122004 70 220 3.0 12.0 0.00 0.00 0.00 57 1018.2
20260901121718 70 220 4.0 12.0 0.00 0.00 0.00 57 1018.2
20260901121217 70 239 3.0 10.0 0.00 0.00 0.00 57 1018.2
20260901120718 69 230 4.0 10.0 0.00 0.00 0.00 57 1018.2
20260901120004 68 225 3.0 10.0 0.00 0.00 0.00 59 1018.3
20260901115503 68 229 2.0 8.0 0.00 0.00 0.00 60 1018.3
20260901115003 68 231 2.0 8.0 0.00 0.00 0.00 60 1018.2
20260901114504 68 221 1.0 6.0 0.00 0.00 0.00 61 1018.3
20260901114003 68 240 2.0 8.0 0.00 0.00 0.00 59 1018.2
20260901113718 69 238 2.0 8.0 0.00 0.00 0.00 58 1018.2
20260901113003 69 236 1.0 9.0 0.00 0.00 0.00 59 1018.2
20260901112718 69 248 1.0 9.0 0.00 0.00 0.00 58 1018.2
20260901112003 68 243 1.0 10.0 0.00 0.00 0.00 60 1018.2
20260901111718 68 250 2.0 10.0 0.00 0.00 0.00 62 1018.3
20260901111219 68 245 1.0 10.0 0.00 0.00 0.00 61 1018.3
20260901110718 67 245 1.0 4.0 0.00 0.00 0.00 64 1018.4
20260901110004 67 248 1.0 6.0 0.00 0.00 0.00 62 1018.4
20260901105503 68 256 1.0 7.0 0.00 0.00 0.00 60 1018.5
20260901105003 68 256 2.0 10.0 0.00 0.00 0.00 59 1018.6
20260901104503 69 257 2.0 10.0 0.00 0.00 0.00 58 1018.6
20260901104003 69 274 1.0 4.0 0.00 0.00 0.00 60 1018.6
20260901103504 69 259 1.0 9.0 0.00 0.00 0.00 60 1018.6
20260901103003 68 253 2.0 9.0 0.00 0.00 0.00 61 1018.6
20260901102503 68 252 1.0 7.0 0.00 0.00 0.00 62 1018.6
20260901102004 68 244 1.0 7.0 0.00 0.00 0.00 62 1018.6
20260901101718 68 233 2.0 7.0 0.00 0.00 0.00 62 1018.6
20260901101004 67 214 3.0 9.0 0.00 0.00 0.00 64 1018.7
20260901100503 67 217 3.0 8.0 0.00 0.00 0.00 62 1018.7